• In Belarus
  • List of Countries
  • For 7 days
  • Water Temperature
  • Satellite Maps
  • Weather Map
  • Weather Widgets
  • user-avatar
    Login

    Hourly Weather Megri

    Today, 26 March, Tuesday

    Time Temperature Precipitation Wind Pressure Humidity
    00:00 -5°C° 0 mm 3 mps 615 mmHg 85%
    01:00 -5°C° 0 mm 3 mps 615 mmHg 85%
    02:00 -5°C° 0 mm 3 mps 615 mmHg 85%
    03:00 -3°C° 0 mm 2 mps 615 mmHg 86%
    04:00 -4°C° 0 mm 2 mps 615 mmHg 86%
    05:00 -4°C° 0 mm 2 mps 615 mmHg 86%
    06:00 -5°C° 0 mm 3 mps 615 mmHg 87%
    07:00 -2°C° 0 mm 2 mps 616 mmHg 86%
    08:00 -1°C° 0 mm 2 mps 617 mmHg 85%
    09:00 +2°C° 0 mm 2 mps 617 mmHg 84%
    10:00 +2°C° 0 mm 2 mps 617 mmHg 83%
    11:00 +3°C° 0 mm 2 mps 617 mmHg 81%
    12:00 +4°C° 0 mm 2 mps 616 mmHg 80%
    13:00 +4°C° 0 mm 2 mps 616 mmHg 79%
    14:00 +4°C° 0 mm 2 mps 616 mmHg 79%
    15:00 +4°C° 0 mm 3 mps 616 mmHg 79%
    16:00 +4°C° 0 mm 2 mps 616 mmHg 79%
    17:00 +3°C° 0 mm 2 mps 616 mmHg 80%
    18:00 +3°C° 0 mm 2 mps 616 mmHg 80%
    19:00 +2°C° 0 mm 2 mps 616 mmHg 82%
    20:00 +2°C° 0 mm 2 mps 616 mmHg 84%
    21:00 +1°C° 0 mm 2 mps 616 mmHg 86%
    22:00 +2°C° 0 mm 1 mps 616 mmHg 87%
    23:00 +1°C° 0 mm 1 mps 616 mmHg 87%

    Tomorrow, 27 March, Wednesday

    Time Temperature Precipitation Wind Pressure Humidity
    00:00 +1°C° 0 mm 1 mps 616 mmHg 88%
    01:00 +1°C° 0 mm 1 mps 616 mmHg 87%
    02:00 +1°C° 0 mm 1 mps 616 mmHg 86%
    03:00 +1°C° 0 mm 1 mps 616 mmHg 85%
    04:00 +1°C° 0 mm 1 mps 616 mmHg 85%
    05:00 -1°C° 0 mm 2 mps 617 mmHg 86%
    06:00 -1°C° 0 mm 2 mps 617 mmHg 86%
    07:00 +1°C° 0 mm 2 mps 617 mmHg 84%
    08:00 +2°C° 0 mm 3 mps 618 mmHg 82%
    09:00 +3°C° 0 mm 3 mps 618 mmHg 81%
    10:00 +3°C° 0 mm 3 mps 618 mmHg 78%
    11:00 +4°C° 0 mm 3 mps 618 mmHg 75%
    12:00 +5°C° 0 mm 4 mps 618 mmHg 72%
    13:00 +5°C° 0 mm 4 mps 618 mmHg 71%
    14:00 +5°C° 0 mm 3 mps 618 mmHg 69%
    15:00 +7°C° 0 mm 3 mps 618 mmHg 68%
    16:00 +5°C° 0 mm 3 mps 618 mmHg 67%
    17:00 +5°C° 0 mm 3 mps 618 mmHg 66%
    18:00 +5°C° 0 mm 2 mps 618 mmHg 65%
    19:00 +5°C° 0 mm 2 mps 618 mmHg 67%
    20:00 +4°C° 0 mm 2 mps 619 mmHg 70%
    21:00 +3°C° 0 mm 2 mps 619 mmHg 73%
    22:00 +3°C° 0 mm 2 mps 619 mmHg 75%
    23:00 +3°C° 0 mm 2 mps 619 mmHg 77%

    Day after tomorrow, 28 March, Thursday

    Time Temperature Precipitation Wind Pressure Humidity
    00:00 +3°C° 0 mm 2 mps 619 mmHg 79%
    01:00 +2°C° 0.1 mm 2 mps 619 mmHg 81%
    02:00 +3°C° 0.1 mm 1 mps 619 mmHg 83%
    03:00 +3°C° 0.1 mm 1 mps 619 mmHg 85%
    04:00 +3°C° 0.1 mm 1 mps 619 mmHg 86%
    05:00 +3°C° 0.1 mm 1 mps 619 mmHg 87%
    06:00 +3°C° 0.1 mm 1 mps 619 mmHg 88%
    07:00 +3°C° 0.2 mm 1 mps 619 mmHg 85%
    08:00 +4°C° 0.2 mm 1 mps 619 mmHg 82%
    09:00 +5°C° 0.2 mm 1 mps 620 mmHg 79%
    10:00 +5°C° 0.4 mm 1 mps 620 mmHg 78%
    11:00 +6°C° 0.4 mm 1 mps 620 mmHg 76%
    12:00 +5°C° 0.4 mm 2 mps 619 mmHg 75%
    13:00 +5°C° 0.6 mm 2 mps 619 mmHg 75%
    14:00 +5°C° 0.6 mm 2 mps 619 mmHg 75%
    15:00 +5°C° 0.6 mm 2 mps 619 mmHg 75%
    16:00 +6°C° 0.2 mm 1 mps 618 mmHg 74%
    17:00 +6°C° 0.2 mm 1 mps 618 mmHg 72%
    18:00 +5°C° 0.2 mm 1 mps 618 mmHg 71%
    19:00 +5°C° 0.3 mm 1 mps 619 mmHg 73%
    20:00 +5°C° 0.3 mm 1 mps 619 mmHg 75%
    21:00 +4°C° 0.3 mm 1 mps 619 mmHg 77%
    22:00 +4°C° 0.1 mm 1 mps 619 mmHg 78%
    23:00 +4°C° 0.1 mm 1 mps 619 mmHg 78%

    29 March, Friday

    Time Temperature Precipitation Wind Pressure Humidity
    00:00 +3°C° 0.1 mm 1 mps 619 mmHg 79%
    01:00 +3°C° 0.2 mm 1 mps 619 mmHg 79%
    02:00 +3°C° 0.2 mm 1 mps 619 mmHg 80%
    03:00 +3°C° 0.2 mm 1 mps 619 mmHg 80%
    04:00 +3°C° 0.2 mm 1 mps 619 mmHg 82%
    05:00 +3°C° 0.2 mm 1 mps 620 mmHg 83%
    06:00 +2°C° 0.2 mm 2 mps 620 mmHg 85%
    07:00 +3°C° 0 mm 2 mps 620 mmHg 82%
    08:00 +4°C° 0 mm 2 mps 620 mmHg 80%
    09:00 +4°C° 0 mm 2 mps 620 mmHg 78%
    10:00 +4°C° 0 mm 3 mps 620 mmHg 75%
    11:00 +5°C° 0 mm 3 mps 620 mmHg 73%
    12:00 +5°C° 0 mm 3 mps 619 mmHg 70%
    13:00 +7°C° 0 mm 3 mps 619 mmHg 68%
    14:00 +7°C° 0 mm 3 mps 619 mmHg 66%
    15:00 +7°C° 0 mm 3 mps 619 mmHg 63%
    16:00 +7°C° 0.2 mm 3 mps 619 mmHg 63%
    17:00 +6°C° 0.2 mm 2 mps 619 mmHg 63%
    18:00 +6°C° 0.2 mm 2 mps 619 mmHg 63%
    19:00 +5°C° 0.4 mm 2 mps 619 mmHg 67%
    20:00 +5°C° 0.4 mm 2 mps 620 mmHg 71%
    21:00 +4°C° 0.4 mm 2 mps 620 mmHg 76%
    22:00 +4°C° 0.9 mm 2 mps 620 mmHg 78%
    23:00 +4°C° 0.9 mm 2 mps 620 mmHg 81%

    30 March, Saturday

    Time Temperature Precipitation Wind Pressure Humidity
    00:00 +3°C° 0.9 mm 2 mps 619 mmHg 84%
    01:00 +3°C° 1.2 mm 2 mps 619 mmHg 85%
    02:00 +2°C° 1.2 mm 2 mps 619 mmHg 86%
    03:00 +2°C° 1.2 mm 2 mps 619 mmHg 87%
    04:00 +1°C° 0.7 mm 3 mps 619 mmHg 87%
    05:00 +1°C° 0.7 mm 3 mps 619 mmHg 87%
    06:00 0°C° 0.7 mm 3 mps 619 mmHg 87%
    07:00 +1°C° 0.4 mm 3 mps 620 mmHg 86%
    08:00 +2°C° 0.4 mm 3 mps 620 mmHg 84%
    09:00 +3°C° 0.4 mm 2 mps 621 mmHg 83%
    10:00 +4°C° 0.5 mm 2 mps 621 mmHg 82%
    11:00 +4°C° 0.5 mm 2 mps 621 mmHg 81%
    12:00 +5°C° 0.5 mm 2 mps 621 mmHg 79%
    13:00 +5°C° 0.4 mm 2 mps 621 mmHg 79%
    14:00 +5°C° 0.4 mm 2 mps 620 mmHg 79%
    15:00 +5°C° 0.4 mm 3 mps 620 mmHg 79%
    16:00 +4°C° 0.4 mm 3 mps 620 mmHg 79%
    17:00 +4°C° 0.4 mm 3 mps 620 mmHg 80%
    18:00 +3°C° 0.4 mm 3 mps 620 mmHg 81%
    19:00 +3°C° 0.9 mm 3 mps 620 mmHg 82%
    20:00 +1°C° 0.9 mm 4 mps 620 mmHg 83%
    21:00 0°C° 0.9 mm 4 mps 620 mmHg 85%
    22:00 0°C° 0.2 mm 4 mps 620 mmHg 84%
    23:00 0°C° 0.2 mm 4 mps 620 mmHg 84%

    31 March, Sunday

    Time Temperature Precipitation Wind Pressure Humidity
    00:00 0°C° 0.2 mm 4 mps 620 mmHg 84%
    01:00 0°C° 0 mm 4 mps 619 mmHg 85%
    02:00 0°C° 0 mm 4 mps 619 mmHg 85%
    03:00 -1°C° 0 mm 4 mps 618 mmHg 86%
    04:00 -1°C° 0 mm 4 mps 618 mmHg 86%
    05:00 -1°C° 0 mm 4 mps 618 mmHg 86%
    06:00 -1°C° 0 mm 4 mps 618 mmHg 86%
    07:00 0°C° 0.6 mm 4 mps 618 mmHg 86%
    08:00 +1°C° 0.6 mm 4 mps 618 mmHg 86%
    09:00 +1°C° 0.6 mm 4 mps 619 mmHg 85%
    10:00 +3°C° 1.1 mm 4 mps 618 mmHg 84%
    11:00 +3°C° 1.1 mm 5 mps 618 mmHg 84%
    12:00 +3°C° 1.1 mm 5 mps 618 mmHg 83%
    13:00 +3°C° 0.6 mm 5 mps 617 mmHg 83%
    14:00 +3°C° 0.6 mm 5 mps 617 mmHg 83%
    15:00 +5°C° 0.6 mm 5 mps 617 mmHg 83%
    16:00 +4°C° 0 mm 4 mps 617 mmHg 83%
    17:00 +4°C° 0 mm 4 mps 616 mmHg 83%
    18:00 +4°C° 0 mm 3 mps 616 mmHg 84%
    19:00 +4°C° 0 mm 3 mps 616 mmHg 85%
    20:00 +3°C° 0 mm 3 mps 616 mmHg 86%
    21:00 +3°C° 0 mm 3 mps 616 mmHg 87%
    22:00 +3°C° 0.1 mm 3 mps 615 mmHg 87%
    23:00 +3°C° 0.1 mm 3 mps 615 mmHg 88%
    Show more